Artesia, NM

5:41 PM MDT on September 22, 2019 (GMT -0600)
Artesia Municipal

Weather History for KATS - August, 2019

Change the Weather History Date:

Monday, August 19, 2019

  Actual Average Record
Temperature  
Mean Temperature 89 °F -  
Max Temperature 100 °F 92 °F 103 °F (1952)
Min Temperature 78 °F 62 °F 56 °F (1973)
Cooling Degree Days 24    
Growing Degree Days 39 (Base 50)    
Moisture  
Dew Point 56 °F    
Average Humidity 33    
Maximum Humidity 51    
Minimum Humidity 18    
Precipitation  
Precipitation 0.00 in - - ()
Sea Level Pressure  
Sea Level Pressure 30.02 in    
Wind  
Wind Speed 7 mph (SE)    
Max Wind Speed 16 mph    
Max Gust Speed 24 mph    
Visibility 10 miles    
Events      
Averages and records for this station are not official NWS values.
T = Trace of Precipitation, MM = Missing Value Source: NWS Daily Summary

Daily Weather History Graph

Daily Weather History Graph

Search for Another Location

Airport or City:

Astronomy

Aug. 19, 2019 Rise Set
Actual Time 6:23 AM MDT 7:38 PM MDT
Civil Twilight 5:57 AM MDT 8:04 PM MDT
Nautical Twilight 5:27 AM MDT 8:35 PM MDT
Astronomical Twilight 4:55 AM MDT 9:06 PM MDT
Moon 10:13 PM MDT (8/19) 9:56 AM MDT (8/19)
Length of Visible Light 14h 06m
Length of Day
13h 14m
Waning Gibbous, 85% of the Moon is Illuminated
Aug 19
Waning Gibbous
Aug 23
Last Quarter
Aug 30
New
Sep 5
First Quarter
Sep 13
Full

Hourly Weather History & Observations

Time (MDT) Temp. Heat Index Dew Point Humidity Pressure Visibility Wind Dir Wind Speed Gust Speed Precip Events Conditions
12:15 AM 87.8 °F - 46.4 °F 24% 29.96 in 10.0 mi SSW 8.1 mph - N/A   Clear
12:35 AM 87.8 °F - 48.2 °F 25% 29.97 in 10.0 mi SSE 8.1 mph - N/A   Clear
12:55 AM 87.8 °F - 50.0 °F 27% 29.96 in 10.0 mi South 6.9 mph - N/A   Clear
1:15 AM 86.0 °F - 50.0 °F 29% 29.96 in 10.0 mi SSE 5.8 mph - N/A   Clear
1:35 AM 86.0 °F - 51.8 °F 31% 29.97 in 10.0 mi SE 5.8 mph - N/A   Clear
1:55 AM 84.2 °F 83.0 °F 55.4 °F 37% 29.97 in 10.0 mi SSE 8.1 mph - N/A   Clear
2:15 AM 84.2 °F 83.0 °F 55.4 °F 37% 29.97 in 10.0 mi South 4.6 mph - N/A   Clear
2:35 AM 82.4 °F 82.0 °F 57.2 °F 42% 29.97 in 10.0 mi South 4.6 mph - N/A   Clear
2:55 AM 82.4 °F 82.0 °F 57.2 °F 42% 29.98 in 10.0 mi South 5.8 mph - N/A   Clear
3:15 AM 82.4 °F 82.5 °F 59.0 °F 45% 29.98 in 10.0 mi South 6.9 mph - N/A   Clear
3:35 AM 82.4 °F 82.5 °F 59.0 °F 45% 29.98 in 10.0 mi SSE 8.1 mph - N/A   Clear
3:55 AM 82.4 °F 82.5 °F 59.0 °F 45% 29.99 in 10.0 mi South 6.9 mph - N/A   Clear
4:15 AM 80.6 °F 81.1 °F 59.0 °F 48% 29.99 in 10.0 mi SSW 4.6 mph - N/A   Clear
4:35 AM 80.6 °F 81.1 °F 59.0 °F 48% 29.99 in 10.0 mi SSE 6.9 mph - N/A   Clear
4:55 AM 80.6 °F 81.1 °F 59.0 °F 48% 30.00 in 10.0 mi South 5.8 mph - N/A   Clear
5:15 AM 80.6 °F 81.1 °F 59.0 °F 48% 30.00 in 10.0 mi South 5.8 mph - N/A   Clear
5:35 AM 80.6 °F 81.1 °F 59.0 °F 48% 30.00 in 10.0 mi South 5.8 mph - N/A   Clear
5:55 AM 80.6 °F 81.1 °F 59.0 °F 48% 30.01 in 10.0 mi South 6.9 mph - N/A   Clear
6:15 AM 80.6 °F 81.1 °F 59.0 °F 48% 30.01 in 10.0 mi SSE 8.1 mph - N/A   Clear
6:35 AM 80.6 °F 81.1 °F 59.0 °F 48% 30.02 in 10.0 mi South 6.9 mph - N/A   Clear
6:55 AM 80.6 °F 81.1 °F 59.0 °F 48% 30.03 in 10.0 mi WSW 3.5 mph - N/A   Clear
7:15 AM 78.8 °F - 59.0 °F 51% 30.03 in 10.0 mi SSW 5.8 mph - N/A   Clear
7:35 AM 80.6 °F 81.1 °F 59.0 °F 48% 30.03 in 10.0 mi South 4.6 mph - N/A   Clear
7:55 AM 80.6 °F 81.1 °F 59.0 °F 48% 30.04 in 10.0 mi Calm Calm - N/A   Clear
8:15 AM 82.4 °F 82.5 °F 59.0 °F 45% 30.05 in 10.0 mi SSE 8.1 mph - N/A   Clear
8:35 AM 82.4 °F 82.9 °F 60.8 °F 48% 30.05 in 10.0 mi SE 12.7 mph - N/A   Clear
8:55 AM 82.4 °F 83.4 °F 62.6 °F 51% 30.06 in 10.0 mi SSE 12.7 mph - N/A   Clear
9:15 AM 82.4 °F 83.4 °F 62.6 °F 51% 30.06 in 10.0 mi SSE 13.8 mph - N/A   Clear
9:35 AM 82.4 °F 83.4 °F 62.6 °F 51% 30.06 in 10.0 mi SSE 15.0 mph - N/A   Clear
9:55 AM 84.2 °F 85.0 °F 62.6 °F 48% 30.07 in 10.0 mi SSE 11.5 mph 17.3 mph N/A   Clear
10:15 AM 86.0 °F 86.6 °F 62.6 °F 45% 30.07 in 10.0 mi SSE 10.4 mph - N/A   Clear
10:35 AM 89.6 °F 90.1 °F 62.6 °F 40% 30.08 in 10.0 mi SSE 9.2 mph - N/A   Clear
11:15 AM 91.4 °F 91.4 °F 60.8 °F 36% 30.08 in 10.0 mi SSE 5.8 mph 12.7 mph N/A   Clear
11:35 AM 93.2 °F 92.6 °F 59.0 °F 32% 30.08 in 10.0 mi SSE 5.8 mph - N/A   Clear
11:55 AM 95.0 °F 93.7 °F 57.2 °F 28% 30.07 in 10.0 mi Calm Calm - N/A   Clear
12:15 PM 95.0 °F 93.7 °F 57.2 °F 28% 30.06 in 10.0 mi East 8.1 mph - N/A   Clear
12:35 PM 96.8 °F 95.8 °F 57.2 °F 27% 30.06 in 10.0 mi ESE 6.9 mph - N/A   Clear
12:55 PM 96.8 °F 95.8 °F 57.2 °F 27% 30.05 in 10.0 mi NNE 9.2 mph - N/A   Clear
1:15 PM 98.6 °F 97.6 °F 57.2 °F 25% 30.04 in 10.0 mi East 10.4 mph - N/A   Clear
1:35 PM 98.6 °F 97.2 °F 55.4 °F 24% 30.04 in 10.0 mi East 8.1 mph - N/A   Clear
1:55 PM 98.6 °F 96.4 °F 53.6 °F 22% 30.04 in 10.0 mi ENE 10.4 mph 16.1 mph N/A   Clear
2:15 PM 100.4 °F - 51.8 °F 20% 30.03 in 10.0 mi East 10.4 mph - N/A   Clear
2:35 PM 100.4 °F - 51.8 °F 20% 30.02 in 10.0 mi Variable 5.8 mph 12.7 mph N/A   Clear
2:55 PM 100.4 °F - 51.8 °F 20% 30.02 in 10.0 mi ESE 4.6 mph 12.7 mph N/A   Clear
3:15 PM 100.4 °F - 51.8 °F 20% 30.01 in 10.0 mi Variable 5.8 mph - N/A   Clear
3:35 PM 100.4 °F - 51.8 °F 20% 30.00 in 10.0 mi Variable 3.5 mph 16.1 mph N/A   Clear
3:55 PM 100.4 °F - 50.0 °F 18% 30.00 in 10.0 mi ESE 9.2 mph - N/A   Clear
4:15 PM 100.4 °F - 50.0 °F 18% 30.00 in 10.0 mi East 8.1 mph 15.0 mph N/A   Clear
4:35 PM 98.6 °F 96.4 °F 53.6 °F 22% 30.00 in 10.0 mi East 8.1 mph 18.4 mph N/A   Clear
4:55 PM 100.4 °F 98.4 °F 53.6 °F 21% 29.99 in 10.0 mi East 13.8 mph - N/A   Clear
5:15 PM 98.6 °F 96.4 °F 53.6 °F 22% 29.99 in 10.0 mi East 11.5 mph 18.4 mph N/A   Clear
5:35 PM 98.6 °F 96.4 °F 53.6 °F 22% 29.99 in 10.0 mi East 12.7 mph 24.2 mph N/A   Clear
5:55 PM 96.8 °F 94.4 °F 53.6 °F 23% 29.99 in 10.0 mi ENE 8.1 mph - N/A   Clear
6:15 PM 96.8 °F 94.4 °F 53.6 °F 23% 29.99 in 10.0 mi ENE 6.9 mph - N/A   Clear
6:35 PM 96.8 °F 94.4 °F 53.6 °F 23% 29.99 in 10.0 mi ENE 6.9 mph - N/A   Clear
6:55 PM 96.8 °F 94.4 °F 53.6 °F 23% 30.00 in 10.0 mi ENE 5.8 mph - N/A   Clear
7:15 PM 96.8 °F 94.4 °F 53.6 °F 23% 30.00 in 10.0 mi NE 4.6 mph - N/A   Clear
7:35 PM 95.0 °F 92.7 °F 53.6 °F 25% 30.00 in 10.0 mi NNE 5.8 mph - N/A   Clear
7:55 PM 95.0 °F - 51.8 °F 23% 30.01 in 10.0 mi NNE 4.6 mph - N/A   Clear
8:15 PM 93.2 °F - 51.8 °F 24% 30.01 in 10.0 mi NE 5.8 mph - N/A   Clear
8:35 PM 91.4 °F - 51.8 °F 26% 30.02 in 10.0 mi NNE 5.8 mph - N/A   Clear
8:55 PM 91.4 °F - 51.8 °F 26% 30.02 in 10.0 mi NE 6.9 mph - N/A   Clear
9:15 PM 91.4 °F - 50.0 °F 24% 30.03 in 10.0 mi ENE 5.8 mph - N/A   Clear
9:35 PM 89.6 °F - 51.8 °F 27% 30.04 in 9.0 mi Calm Calm - N/A   Clear
9:55 PM 87.8 °F - 51.8 °F 29% 30.05 in 10.0 mi SSE 5.8 mph - N/A   Clear
10:15 PM 87.8 °F 85.7 °F 53.6 °F 31% 30.05 in 10.0 mi SSE 10.4 mph - N/A   Clear
10:35 PM 89.6 °F 87.3 °F 53.6 °F 29% 30.06 in 10.0 mi South 13.8 mph - N/A   Clear
10:55 PM 87.8 °F 86.1 °F 55.4 °F 33% 30.07 in 10.0 mi South 10.4 mph - N/A   Clear
11:15 PM 89.6 °F 87.7 °F 55.4 °F 31% 30.08 in 10.0 mi South 16.1 mph - N/A   Clear
11:35 PM 89.6 °F 88.1 °F 57.2 °F 33% 30.08 in 10.0 mi SSE 13.8 mph - N/A   Clear
11:55 PM 87.8 °F 86.5 °F 57.2 °F 35% 30.08 in 10.0 mi South 16.1 mph 24.2 mph N/A   Clear